This demonstration page uses our WeatherBlox Daily Observations layout. Learn more.

Left ArrowRight Arrow

Hourly Observations for April 30, 2015

Temp ( °F °C ) Dew Point ( °F °C ) Humidity (%) Winds ( mph kmh ) Pressure ( in mb ) Visibility ( mi km ) Precip ( " mm )
12:53 am 00:53 Cloudy 57 13.9 45 7.2 64 64 Calm 29.79 1009 10 16.0934 0 0
1:53 am 01:53 Partly Cloudy 54 12.2 44 6.7 69 69 WNW 5 7 29.79 1009 10 16.0934 0 0
2:53 am 02:53 Cloudy 56 13.3 43 6.1 62 62 NW 7 11 29.77 1008 10 16.0934 0 0
3:53 am 03:53 Cloudy 55 12.8 43 6.1 64 64 NW 6 9 29.76 1008 10 16.0934 0 0
4:53 am 04:53 Cloudy 53 11.7 43 6.1 69 69 NNW 6 9 29.77 1008 10 16.0934 0 0
5:53 am 05:53 Mostly Cloudy 51 10.6 42 5.6 71 71 NW 5 7 29.78 1008 10 16.0934 0 0
6:53 am 06:53 Mostly Sunny 47 8.3 42 5.6 83 83 WNW 3 6 29.79 1009 10 16.0934 0 0
7:53 am 07:53 Sunny 49 9.4 43 6.1 80 80 NNW 5 7 29.8 1009 10 16.0934 0 0
8:53 am 08:53 Sunny 53 11.7 45 7.2 74 74 N 9 15 29.82 1010 10 16.0934 0 0
9:53 am 09:53 Sunny 54 12.2 45 7.2 72 72 N 6 9 29.83 1010 10 16.0934 0 0
10:53 am 10:53 Sunny 60 15.6 46 7.8 60 60 VRB 7 11 29.83 1010 10 16.0934 0 0
11:53 am 11:53 Partly Cloudy 62 16.7 41 5 46 46 NNW 12 19 29.83 1010 10 16.0934 0 0
12:53 pm 12:53 Partly Cloudy 61 16.1 40 4.4 46 46 NNE 10 17 29.82 1010 10 16.0934 0 0
1:53 pm 13:53 Mostly Cloudy 60 15.6 34 1.1 38 38 NNE 8 13 29.82 1010 10 16.0934 0 0
2:53 pm 14:53 Cloudy with Light Rain 58 14.4 38 3.3 48 48 WNW 20 31 29.85 1011 10 16.0934 0 0.0254
3:11 pm 15:11 Cloudy with Light Rain 51 10.6 43 6.1 74 74 NW 18 30 29.91 1013 7 11.26538 0 0.0254
3:22 pm 15:22 Cloudy with Heavy Rain 49 9.4 44 6.7 83 83 WNW 15 24 29.91 1013 1.75 2.816345 0.05 1.27
3:30 pm 15:30 Cloudy with Light Rain 49 9.4 44 6.7 83 83 WNW 10 17 29.91 1013 3 4.82802 0.06 1.524
3:53 pm 15:53 Cloudy with Light Rain 51 10.6 44 6.7 77 77 NNW 12 19 29.88 1012 9 14.48406 0.08 2.032
4:53 pm 16:53 Cloudy with Light Rain 50 10 44 6.7 80 80 N 8 13 29.9 1012 6 9.65604 0.02 0.508
5:53 pm 17:53 Mostly Cloudy 55 12.8 42 5.6 62 62 NNW 7 11 29.88 1012 10 16.0934 0 0.0254
6:53 pm 18:53 Sunny 57 13.9 39 3.9 51 51 NNW 8 13 29.89 1012 10 16.0934 0 0
7:53 pm 19:53 Cloudy 55 12.8 42 5.6 62 62 N 5 7 29.91 1013 10 16.0934 0 0
8:53 pm 20:53 Partly Cloudy 49 9.4 44 6.7 83 83 NW 3 6 29.94 1014 10 16.0934 0 0
9:53 pm 21:53 Mostly Cloudy 48 8.9 42 5.6 80 80 NNW 6 9 29.97 1015 10 16.0934 0 0
10:53 pm 22:53 Clear 44 6.7 40 4.4 85 85 NNW 5 7 29.98 1015 10 16.0934 0 0
11:53 pm 23:53 Clear 47 8.3 39 3.9 74 74 NNW 5 7 30.01 1016 10 16.0934 0 0

Powered by AerisWeather